EDT,Max TemperatureF,Mean TemperatureF,Min TemperatureF,Max Dew PointF,MeanDew PointF,Min DewpointF,Max Humidity, Mean Humidity, Min Humidity, Max Sea Level PressureIn, Mean Sea Level PressureIn, Min Sea Level PressureIn, Max VisibilityMiles, Mean VisibilityMiles, Min VisibilityMiles, Max Wind SpeedMPH, Mean Wind SpeedMPH, Max Gust SpeedMPH,PrecipitationIn, CloudCover, Events, WindDirDegrees
2012-10-1,64,50,37,52,41,37,100,84,48,29.95,29.91,29.81,10,6,0,13,4,,0.22,2,Fog-Rain,63
2012-10-2,72,62,52,63,58,51,100,91,75,29.89,29.81,29.75,10,6,2,15,7,,0.29,8,Rain,31
2012-10-3,64,60,55,61,57,52,100,86,67,30.15,30.04,29.89,10,6,0,17,6,23,0.00,6,Fog,200
2012-10-4,75,62,51,54,52,49,92,70,43,30.19,30.15,30.11,10,10,8,17,8,25,0.00,1,,213
2012-10-5,63,54,44,55,50,43,97,88,67,30.13,30.07,29.99,10,8,4,14,7,20,0.42,7,Rain,296
2012-10-6,54,46,37,43,38,34,100,81,47,30.15,30.05,29.99,10,9,4,13,8,18,0.40,4,Rain,298
2012-10-7,48,44,39,39,35,30,86,72,54,30.20,30.15,30.12,10,9,2,9,4,17,0.04,6,Rain,278
2012-10-8,52,42,33,35,32,30,92,67,44,30.27,30.22,30.17,10,10,10,12,5,16,0.00,3,,206
2012-10-9,59,46,33,42,37,34,100,80,46,30.20,30.12,29.97,10,7,1,16,9,21,0.00,1,,181
2012-10-10,54,44,37,43,37,28,93,73,48,30.23,30.02,29.89,10,10,6,18,11,28,0.02,5,Rain,271
2012-10-11,57,44,30,33,30,27,92,66,33,30.31,30.24,30.17,10,10,10,16,6,23,0.00,0,,209
2012-10-12,53,44,35,39,33,27,82,63,37,30.42,30.33,30.19,10,10,10,20,8,24,0.00,4,,26
2012-10-13,66,50,33,55,38,28,83,65,45,30.40,30.24,30.03,10,10,10,16,9,24,0.05,2,Rain,166
2012-10-14,73,67,62,60,57,54,84,75,57,29.99,29.82,29.64,10,10,4,34,17,45,0.13,5,Rain,201
2012-10-15,57,52,48,50,45,39,89,79,66,29.96,29.83,29.71,10,10,8,20,12,31,0.03,8,Rain,286
2012-10-16,60,48,37,39,38,35,93,68,44,30.03,29.94,29.84,10,10,9,12,5,,0.00,1,,207
2012-10-17,71,61,52,50,44,39,66,58,42,29.84,29.76,29.62,10,10,10,17,11,24,0.00,5,,172
2012-10-18,64,54,46,48,40,30,87,60,32,29.74,29.61,29.50,10,9,1,21,15,36,0.05,3,Rain,206
2012-10-19,54,49,44,45,42,37,93,83,55,29.69,29.65,29.59,10,10,5,16,10,21,0.03,7,Rain,194
2012-10-20,55,48,44,45,41,38,100,79,59,29.98,29.78,29.66,10,10,10,15,10,22,0.01,7,Rain,242
2012-10-21,60,47,35,43,39,34,97,73,49,30.16,30.11,29.99,10,10,5,12,5,,0.02,2,,193
2012-10-22,73,60,46,55,47,40,83,66,49,30.15,30.10,30.03,10,10,10,13,8,,0.01,1,,185
2012-10-23,69,64,59,61,54,51,90,75,61,30.09,30.03,29.99,10,9,1,20,9,30,0.02,6,Rain,207
2012-10-24,77,69,61,57,53,50,81,63,41,30.11,30.06,30.02,10,10,10,15,8,,0.76,3,Rain,198
2012-10-25,77,66,54,53,50,47,77,60,43,30.08,30.01,29.95,10,10,10,17,9,24,0.00,0,,183
2012-10-26,62,52,44,54,46,44,100,89,69,30.18,30.13,29.96,10,6,2,17,11,23,0.80,7,Rain,353
2012-10-27,48,46,43,44,42,37,97,86,71,30.14,30.12,30.08,10,8,3,22,16,26,0.24,8,Rain,10
2012-10-28,45,41,36,39,36,34,93,79,66,30.12,30.07,30.02,10,10,7,26,17,34,0.35,8,Rain,11
2012-10-29,39,37,35,36,35,32,93,90,87,30.02,29.89,29.61,10,8,5,26,20,37,0.28,8,Rain-Snow,342
2012-10-30,39,36,33,37,33,30,100,91,87,29.57,29.45,29.37,10,3,1,30,24,43,0.17,8,Rain-Snow,324
2012-10-31,39,37,35,38,36,35,100,94,87,29.73,29.63,29.54,10,5,1,16,13,26,0.04,8,Rain,299